Hamilton, OH

2:43 PM EDT on September 20, 2017 (GMT -0400)
Butler County Regional

Weather History for KHAO - January, 2013

Change the Weather History Date:

Friday, January 4, 2013

  Actual Average (KLUK) Record (KLUK)
Temperature  
Mean Temperature 32 °F -  
Max Temperature 36 °F 40 °F 68 °F (1997)
Min Temperature 23 °F 24 °F 5 °F (1969)
Degree Days  
Heating Degree Days 34    
Moisture  
Dew Point 20 °F    
Average Humidity 64    
Maximum Humidity 81    
Minimum Humidity 50    
Precipitation  
Precipitation 0.00 in - - ()
Sea Level Pressure  
Sea Level Pressure 30.35 in    
Wind  
Wind Speed 7 mph (WSW)    
Max Wind Speed 15 mph    
Max Gust Speed 21 mph    
Visibility 10 miles    
Events      
Averages and records for this station are not official NWS values.
T = Trace of Precipitation, MM = Missing Value Source: NWS Daily Summary

Daily Weather History Graph

Daily Weather History Graph

Search for Another Location

Airport or City:

Trip Planner

Search our weather history database for the weather conditions in past years. The results will help you decide how hot, cold, wet, or windy it might be!

Date:

Astronomy

Jan. 04, 2013 Rise Set
Actual Time 7:58 AM EST 5:28 PM EST
Civil Twilight 7:28 AM EST 5:58 PM EST
Nautical Twilight 6:54 AM EST 6:31 PM EST
Astronomical Twilight 6:22 AM EST 7:04 PM EST
Moon No Moon Rise 11:43 AM EST (1/4)
Length of Visible Light 10h 29m
Length of Day
9h 30m
Waning Gibbous, 55% of the Moon is Illuminated
Jan 4
Waning Gibbous
Jan 4
Last Quarter
Jan 11
New
Jan 18
First Quarter
Jan 26
Full

Hourly Weather History & Observations

Time (EST) Temp. Windchill Dew Point Humidity Pressure Visibility Wind Dir Wind Speed Gust Speed Precip Events Conditions
12:02 AM 30.2 °F 25.4 °F 21.2 °F 69% 30.32 in 10.0 mi WSW 4.6 mph - N/A   Overcast
12:53 AM 32.0 °F 27.5 °F 23.0 °F 69% 30.34 in 10.0 mi Variable 4.6 mph - N/A   Overcast
1:53 AM 32.0 °F 24.2 °F 23.0 °F 69% 30.33 in 10.0 mi WSW 9.2 mph 17.3 mph N/A   Overcast
2:53 AM 30.9 °F 22.2 °F 24.1 °F 76% 30.34 in 9.0 mi West 10.4 mph - N/A   Overcast
3:53 AM 30.9 °F 20.2 °F 21.9 °F 69% 30.34 in 10.0 mi West 15.0 mph 20.7 mph N/A   Overcast
4:53 AM 30.9 °F 22.2 °F 19.9 °F 64% 30.34 in 10.0 mi WNW 10.4 mph 16.1 mph N/A   Overcast
5:20 AM 30.2 °F 21.9 °F 19.4 °F 64% 30.32 in 10.0 mi West 9.2 mph - N/A   Scattered Clouds
5:53 AM 30.0 °F 24.1 °F 19.9 °F 66% 30.35 in 10.0 mi West 5.8 mph - N/A   Mostly Cloudy
7:53 AM 27.0 °F 19.5 °F 19.0 °F 72% 30.36 in 10.0 mi West 6.9 mph - N/A   Partly Cloudy
8:53 AM 28.0 °F 22.8 °F 19.0 °F 69% 30.36 in 10.0 mi West 4.6 mph - N/A   Clear
9:22 AM 28.4 °F - 19.4 °F 69% 30.34 in 10.0 mi Calm Calm - N/A   Mostly Cloudy
9:53 AM 32.0 °F 28.7 °F 21.0 °F 64% 30.37 in 10.0 mi West 3.5 mph - N/A   Mostly Cloudy
10:04 AM 33.8 °F 27.7 °F 21.2 °F 60% 30.35 in 10.0 mi WSW 6.9 mph - N/A   Scattered Clouds
10:20 AM 33.8 °F 27.7 °F 21.2 °F 60% 30.35 in 10.0 mi West 6.9 mph 16.1 mph N/A   Mostly Cloudy
10:53 AM 34.0 °F 26.6 °F 21.9 °F 61% 30.38 in 10.0 mi West 9.2 mph - N/A   Scattered Clouds
11:53 AM 34.0 °F 25.5 °F 21.9 °F 61% 30.38 in 10.0 mi West 11.5 mph 17.3 mph N/A   Scattered Clouds
12:53 PM 35.1 °F 27.4 °F 19.9 °F 54% 30.35 in 10.0 mi West 10.4 mph 16.1 mph N/A   Clear
1:53 PM 35.1 °F 26.9 °F 19.0 °F 52% 30.33 in 10.0 mi West 11.5 mph 17.3 mph N/A   Clear
2:53 PM 36.0 °F 28.5 °F 19.9 °F 52% 30.33 in 10.0 mi West 10.4 mph 18.4 mph N/A   Clear
3:53 PM 36.0 °F 28.0 °F 19.0 °F 50% 30.34 in 10.0 mi WSW 11.5 mph 19.6 mph N/A   Clear
4:53 PM 34.0 °F 26.0 °F 19.0 °F 54% 30.35 in 10.0 mi West 10.4 mph - N/A   Clear
5:53 PM 32.0 °F 26.4 °F 18.0 °F 56% 30.36 in 10.0 mi West 5.8 mph - N/A   Clear
7:53 PM 30.0 °F 24.1 °F 18.0 °F 61% 30.37 in 10.0 mi WSW 5.8 mph - N/A   Clear
8:53 PM 28.9 °F 21.1 °F 19.9 °F 69% 30.37 in 10.0 mi WSW 8.1 mph - N/A   Clear
9:53 PM 28.9 °F 25.2 °F 19.9 °F 69% 30.36 in 10.0 mi SW 3.5 mph - N/A   Clear
10:53 PM 27.0 °F - 19.0 °F 72% 30.37 in 10.0 mi Calm Calm - N/A   Clear
11:53 PM 23.0 °F 18.4 °F 18.0 °F 81% 30.39 in 10.0 mi WSW 3.5 mph - N/A   Clear